Year,Month,Day,Hour,Minute,Value (Times are PST for windgust in km/hr)
2017,05,25,00,26,1.60
2017,05,25,00,27,6.40
2017,05,25,00,28,6.40
2017,05,25,00,29,6.40
2017,05,25,00,30,3.20
2017,05,25,00,31,3.20
2017,05,25,00,32,3.20
2017,05,25,00,33,6.40
2017,05,25,00,34,6.40
2017,05,25,00,35,6.40
2017,05,25,00,36,6.40
2017,05,25,00,37,6.40
2017,05,25,00,38,6.40
2017,05,25,00,39,6.40
2017,05,25,00,40,6.40
2017,05,25,00,41,3.20
2017,05,25,00,42,6.40
2017,05,25,00,43,3.20
2017,05,25,00,44,6.40
2017,05,25,00,45,6.40
2017,05,25,00,46,3.20
2017,05,25,00,47,3.20
2017,05,25,00,48,3.20
2017,05,25,00,49,3.20
2017,05,25,00,50,3.20
2017,05,25,00,51,1.60
2017,05,25,00,52,1.60
2017,05,25,00,53,1.60
2017,05,25,00,55,1.60
2017,05,25,00,56,1.60
2017,05,25,01,02,1.60
2017,05,25,01,03,3.20
2017,05,25,01,04,3.20
2017,05,25,01,05,3.20
2017,05,25,01,06,3.20
2017,05,25,01,07,3.20
2017,05,25,01,08,3.20
2017,05,25,01,09,3.20
2017,05,25,01,10,3.20
2017,05,25,01,11,3.20
2017,05,25,01,12,3.20
2017,05,25,01,13,1.60
2017,05,25,01,14,1.60
2017,05,25,01,15,1.60
2017,05,25,02,24,4.80
2017,05,25,02,25,4.80
2017,05,25,02,26,3.20
2017,05,25,02,27,3.20
2017,05,25,02,28,3.20
2017,05,25,02,29,1.60
2017,05,25,08,08,4.80
2017,05,25,08,09,4.80
2017,05,25,08,10,3.20
2017,05,25,08,11,3.20
2017,05,25,08,12,1.60
2017,05,25,08,13,1.60
2017,05,25,08,14,1.60
2017,05,25,08,15,3.20
2017,05,25,08,16,4.80
2017,05,25,08,17,3.20
2017,05,25,08,18,3.20
2017,05,25,08,23,3.20
2017,05,25,08,24,3.20
2017,05,25,08,25,3.20
2017,05,25,08,26,1.60
2017,05,25,08,42,6.40
2017,05,25,08,43,4.80
2017,05,25,08,44,6.40
2017,05,25,08,45,4.80
2017,05,25,08,46,4.80
2017,05,25,08,47,1.60
2017,05,25,08,48,1.60
2017,05,25,08,49,3.20
2017,05,25,08,50,6.40
2017,05,25,08,51,3.20
2017,05,25,08,52,4.80
2017,05,25,08,53,6.40
2017,05,25,08,54,9.60
2017,05,25,08,55,6.40
2017,05,25,08,56,6.40
2017,05,25,08,57,8.10
2017,05,25,08,58,8.10
2017,05,25,08,59,6.40
2017,05,25,09,00,6.40
2017,05,25,09,01,4.80
2017,05,25,09,02,4.80
2017,05,25,09,03,6.40
2017,05,25,09,04,6.40
2017,05,25,09,05,6.40
2017,05,25,09,06,4.80
2017,05,25,09,07,4.80
2017,05,25,09,08,3.20
2017,05,25,09,09,4.80
2017,05,25,09,10,6.40
2017,05,25,09,11,4.80
2017,05,25,09,12,3.20
2017,05,25,09,13,9.60
2017,05,25,09,14,8.10
2017,05,25,09,15,8.10
2017,05,25,09,16,4.80
2017,05,25,09,17,4.80
2017,05,25,09,18,3.20
2017,05,25,09,19,4.80
2017,05,25,09,20,4.80
2017,05,25,09,21,6.40
2017,05,25,09,22,9.60
2017,05,25,09,23,6.40
2017,05,25,09,24,8.10
2017,05,25,09,25,6.40
2017,05,25,09,26,4.80
2017,05,25,09,27,9.60
2017,05,25,09,28,8.10
2017,05,25,09,29,11.30
2017,05,25,09,30,8.10
2017,05,25,09,31,8.10
2017,05,25,09,32,11.30
2017,05,25,09,33,8.10
2017,05,25,09,34,6.40
2017,05,25,09,35,8.10
2017,05,25,09,36,9.60
2017,05,25,09,37,8.10
2017,05,25,09,38,8.10
2017,05,25,09,39,3.20
2017,05,25,09,40,8.10
2017,05,25,09,41,8.10
2017,05,25,09,42,8.10
2017,05,25,09,43,16.10
2017,05,25,09,44,12.90
2017,05,25,09,45,11.30
2017,05,25,09,46,8.10
2017,05,25,09,47,8.10
2017,05,25,09,48,11.30
2017,05,25,09,49,9.60
2017,05,25,09,50,9.60
2017,05,25,09,51,6.40
2017,05,25,09,52,11.30
2017,05,25,09,53,12.90
2017,05,25,09,54,9.60
2017,05,25,09,55,12.90
2017,05,25,09,56,11.30
2017,05,25,09,57,11.30
2017,05,25,09,58,14.50
2017,05,25,09,59,11.30
2017,05,25,10,00,9.60
2017,05,25,10,01,9.60
2017,05,25,10,02,11.30
2017,05,25,10,03,11.30
2017,05,25,10,04,8.10
2017,05,25,10,05,8.10
2017,05,25,10,06,3.20
2017,05,25,10,07,3.20
2017,05,25,10,08,11.30
2017,05,25,10,09,11.30
2017,05,25,10,10,9.60
2017,05,25,10,11,11.30
2017,05,25,10,12,12.90
2017,05,25,10,13,11.30
2017,05,25,10,14,19.30
2017,05,25,10,15,19.30
2017,05,25,10,16,12.90
2017,05,25,10,17,12.90
2017,05,25,10,18,12.90
2017,05,25,10,19,11.30
2017,05,25,10,20,9.60
2017,05,25,10,21,11.30
2017,05,25,10,22,11.30
2017,05,25,10,23,9.60
2017,05,25,10,24,8.10
2017,05,25,10,25,14.50
2017,05,25,10,26,11.30
2017,05,25,10,27,8.10
2017,05,25,10,28,11.30
2017,05,25,10,29,8.10
2017,05,25,10,30,17.70
2017,05,25,10,31,14.50
2017,05,25,10,32,11.30
2017,05,25,10,33,9.60
2017,05,25,10,34,6.40
2017,05,25,10,35,6.40
2017,05,25,10,36,8.10
2017,05,25,10,37,6.40
2017,05,25,10,38,12.90
2017,05,25,10,39,11.30
2017,05,25,10,40,4.80
2017,05,25,10,41,8.10
2017,05,25,10,42,9.60
2017,05,25,10,43,8.10
2017,05,25,10,44,9.60
2017,05,25,10,45,6.40
2017,05,25,10,46,12.90
2017,05,25,10,47,11.30
2017,05,25,10,48,11.30
2017,05,25,10,49,11.30
2017,05,25,10,50,11.30
2017,05,25,10,51,9.60
2017,05,25,10,52,3.20
2017,05,25,10,53,8.10
2017,05,25,10,54,8.10
2017,05,25,10,55,9.60
2017,05,25,10,56,4.80
2017,05,25,10,57,6.40
2017,05,25,10,58,11.30
2017,05,25,10,59,11.30
2017,05,25,11,00,9.60
2017,05,25,11,01,6.40
2017,05,25,11,02,8.10
2017,05,25,11,03,6.40
2017,05,25,11,04,8.10
2017,05,25,11,05,9.60
2017,05,25,11,06,6.40
2017,05,25,11,07,9.60
2017,05,25,11,08,8.10
2017,05,25,11,09,11.30
2017,05,25,11,10,6.40
2017,05,25,11,11,8.10
2017,05,25,11,12,6.40
2017,05,25,11,13,9.60
2017,05,25,11,14,11.30
2017,05,25,11,15,9.60
2017,05,25,11,16,12.90
2017,05,25,11,17,11.30
2017,05,25,11,18,14.50
2017,05,25,11,19,9.60
2017,05,25,11,20,9.60
2017,05,25,11,21,8.10
2017,05,25,11,22,12.90
2017,05,25,11,23,11.30
2017,05,25,11,24,11.30
2017,05,25,11,25,4.80
2017,05,25,11,26,6.40
2017,05,25,11,27,12.90
2017,05,25,11,28,11.30
2017,05,25,11,29,8.10
2017,05,25,11,30,9.60
2017,05,25,11,31,6.40
2017,05,25,11,32,11.30
2017,05,25,11,33,11.30
2017,05,25,11,34,4.80
2017,05,25,11,35,4.80
2017,05,25,11,36,6.40
2017,05,25,11,37,6.40
2017,05,25,11,38,12.90
2017,05,25,11,39,12.90
2017,05,25,11,40,12.90
2017,05,25,11,41,12.90
2017,05,25,11,42,6.40
2017,05,25,11,43,9.60
2017,05,25,11,44,9.60
2017,05,25,11,45,11.30
2017,05,25,11,46,12.90
2017,05,25,11,47,8.10
2017,05,25,11,48,11.30
2017,05,25,11,49,8.10
2017,05,25,11,50,4.80
2017,05,25,11,51,4.80
2017,05,25,11,52,4.80
2017,05,25,11,53,14.50
2017,05,25,11,54,14.50
2017,05,25,11,55,12.90
2017,05,25,11,56,12.90
2017,05,25,11,57,11.30
2017,05,25,11,58,8.10
2017,05,25,11,59,4.80
2017,05,25,12,00,4.80
2017,05,25,12,01,4.80
2017,05,25,12,02,9.60
2017,05,25,12,03,8.10
2017,05,25,12,04,9.60
2017,05,25,12,05,6.40
2017,05,25,12,06,9.60
2017,05,25,12,07,9.60
2017,05,25,12,08,9.60
2017,05,25,12,09,17.70
2017,05,25,12,10,14.50
2017,05,25,12,11,11.30
2017,05,25,12,12,6.40
2017,05,25,12,13,8.10
2017,05,25,12,14,9.60
2017,05,25,12,15,6.40
2017,05,25,12,16,9.60
2017,05,25,12,17,8.10
2017,05,25,12,18,8.10
2017,05,25,12,19,12.90
2017,05,25,12,20,11.30
2017,05,25,12,21,11.30
2017,05,25,12,22,9.60
2017,05,25,12,23,11.30
2017,05,25,12,24,12.90
2017,05,25,12,25,11.30
2017,05,25,12,26,11.30
2017,05,25,12,27,12.90
2017,05,25,12,28,8.10
2017,05,25,12,29,8.10
2017,05,25,12,30,11.30
2017,05,25,12,31,11.30
2017,05,25,12,32,9.60
2017,05,25,12,33,12.90
2017,05,25,12,34,9.60
2017,05,25,12,35,9.60
2017,05,25,12,36,8.10
2017,05,25,12,37,8.10
2017,05,25,12,38,4.80
2017,05,25,12,39,4.80
2017,05,25,12,40,8.10
2017,05,25,12,41,8.10
2017,05,25,12,42,6.40
2017,05,25,12,43,8.10
2017,05,25,12,44,9.60
2017,05,25,12,45,9.60
2017,05,25,12,46,8.10
2017,05,25,12,47,4.80
2017,05,25,12,48,6.40
2017,05,25,12,49,8.10
2017,05,25,12,50,11.30
2017,05,25,12,51,12.90
2017,05,25,12,52,12.90
2017,05,25,12,53,11.30
2017,05,25,12,54,4.80
2017,05,25,12,55,9.60
2017,05,25,12,56,11.30
2017,05,25,12,57,11.30
2017,05,25,12,58,11.30
2017,05,25,12,59,9.60
2017,05,25,13,00,6.40
2017,05,25,13,01,12.90
2017,05,25,13,02,14.50
2017,05,25,13,03,16.10
2017,05,25,13,04,12.90
2017,05,25,13,05,6.40
2017,05,25,13,06,9.60
2017,05,25,13,07,8.10
2017,05,25,13,08,11.30
2017,05,25,13,09,11.30
2017,05,25,13,10,11.30
2017,05,25,13,11,12.90
2017,05,25,13,12,8.10
2017,05,25,13,13,4.80
2017,05,25,13,14,9.60
2017,05,25,13,15,11.30
2017,05,25,13,16,11.30
2017,05,25,13,17,6.40
2017,05,25,13,18,6.40
2017,05,25,13,19,4.80
2017,05,25,13,20,3.20
2017,05,25,13,21,4.80
2017,05,25,13,22,11.30
2017,05,25,13,23,12.90
2017,05,25,13,24,9.60
2017,05,25,13,25,8.10
2017,05,25,13,26,9.60
2017,05,25,13,27,8.10
2017,05,25,13,28,12.90
2017,05,25,13,29,12.90
2017,05,25,13,30,17.70
2017,05,25,13,31,14.50
2017,05,25,13,32,9.60
2017,05,25,13,33,6.40
2017,05,25,13,34,9.60
2017,05,25,13,35,12.90
2017,05,25,13,36,11.30
2017,05,25,13,37,12.90
2017,05,25,13,38,16.10
2017,05,25,13,39,9.60
2017,05,25,13,40,9.60
2017,05,25,13,41,9.60
2017,05,25,13,42,12.90
2017,05,25,13,43,16.10
2017,05,25,13,44,11.30
2017,05,25,13,45,8.10
2017,05,25,13,46,11.30
2017,05,25,13,47,12.90
2017,05,25,13,48,9.60
2017,05,25,13,49,12.90
2017,05,25,13,50,11.30
2017,05,25,13,51,6.40
2017,05,25,13,52,9.60
2017,05,25,13,53,8.10
2017,05,25,13,54,11.30
2017,05,25,13,55,14.50
2017,05,25,13,56,8.10
2017,05,25,13,57,9.60
2017,05,25,13,58,6.40
2017,05,25,13,59,9.60
2017,05,25,14,00,11.30
2017,05,25,14,01,16.10
2017,05,25,14,02,14.50
2017,05,25,14,03,11.30
2017,05,25,14,04,9.60
2017,05,25,14,05,11.30
2017,05,25,14,06,14.50
2017,05,25,14,07,14.50
2017,05,25,14,08,9.60
2017,05,25,14,09,9.60
2017,05,25,14,10,11.30
2017,05,25,14,11,14.50
2017,05,25,14,12,8.10
2017,05,25,14,13,9.60
2017,05,25,14,14,6.40
2017,05,25,14,15,9.60
2017,05,25,14,16,9.60
2017,05,25,14,17,14.50
2017,05,25,14,18,14.50
2017,05,25,14,19,11.30
2017,05,25,14,20,9.60
2017,05,25,14,21,11.30
2017,05,25,14,22,11.30
2017,05,25,14,23,6.40
2017,05,25,14,24,6.40
2017,05,25,14,25,11.30
2017,05,25,14,26,9.60
2017,05,25,14,27,9.60
2017,05,25,14,28,12.90
2017,05,25,14,29,9.60
2017,05,25,14,30,4.80
2017,05,25,14,31,6.40
2017,05,25,14,32,11.30
2017,05,25,14,33,12.90
2017,05,25,14,34,14.50
2017,05,25,14,35,4.80
2017,05,25,14,36,12.90
2017,05,25,14,37,8.10
2017,05,25,14,38,12.90
2017,05,25,14,39,8.10
2017,05,25,14,40,11.30
2017,05,25,14,41,9.60
2017,05,25,14,42,12.90
2017,05,25,14,43,17.70
2017,05,25,14,44,11.30
2017,05,25,14,45,14.50
2017,05,25,14,46,14.50
2017,05,25,14,47,14.50
2017,05,25,14,48,9.60
2017,05,25,14,49,11.30
2017,05,25,14,50,11.30
2017,05,25,14,51,11.30
2017,05,25,14,52,14.50
2017,05,25,14,53,17.70
2017,05,25,14,54,14.50
2017,05,25,14,55,12.90
2017,05,25,14,56,14.50
2017,05,25,14,57,9.60
2017,05,25,14,58,6.40
2017,05,25,14,59,9.60
2017,05,25,15,00,16.10
2017,05,25,15,01,17.70
2017,05,25,15,02,11.30
2017,05,25,15,03,16.10
2017,05,25,15,04,14.50
2017,05,25,15,05,9.60
2017,05,25,15,06,14.50
2017,05,25,15,07,16.10
2017,05,25,15,08,12.90
2017,05,25,15,09,12.90
2017,05,25,15,10,14.50
2017,05,25,15,11,8.10
2017,05,25,15,12,9.60
2017,05,25,15,13,22.50
2017,05,25,15,14,20.90
2017,05,25,15,15,20.90
2017,05,25,15,16,12.90
2017,05,25,15,17,12.90
2017,05,25,15,18,19.30
2017,05,25,15,19,14.50
2017,05,25,15,20,17.70
2017,05,25,15,21,22.50
2017,05,25,15,22,20.90
2017,05,25,15,23,19.30
2017,05,25,15,24,19.30
2017,05,25,15,25,20.90
2017,05,25,15,26,17.70
2017,05,25,15,27,12.90
2017,05,25,15,28,14.50
2017,05,25,15,29,17.70
2017,05,25,15,30,16.10
2017,05,25,15,31,14.50
2017,05,25,15,32,9.60
2017,05,25,15,33,16.10
2017,05,25,15,34,12.90
2017,05,25,15,35,16.10
2017,05,25,15,36,20.90
2017,05,25,15,37,14.50
2017,05,25,15,38,16.10
2017,05,25,15,39,17.70
2017,05,25,15,40,12.90
2017,05,25,15,41,12.90
2017,05,25,15,42,11.30
2017,05,25,15,43,11.30
2017,05,25,15,44,8.10
2017,05,25,15,45,17.70
2017,05,25,15,46,9.60
2017,05,25,15,47,14.50
2017,05,25,15,48,9.60
2017,05,25,15,49,8.10
2017,05,25,15,50,14.50
2017,05,25,15,51,9.60
2017,05,25,15,52,14.50
2017,05,25,15,53,14.50
2017,05,25,15,54,8.10
2017,05,25,15,55,11.30
2017,05,25,15,56,9.60
2017,05,25,15,57,14.50
2017,05,25,15,58,11.30
2017,05,25,15,59,9.60
2017,05,25,16,00,16.10
2017,05,25,16,01,12.90
2017,05,25,16,02,16.10
2017,05,25,16,03,14.50
2017,05,25,16,04,19.30
2017,05,25,16,05,19.30
2017,05,25,16,06,16.10
2017,05,25,16,07,16.10
2017,05,25,16,08,19.30
2017,05,25,16,09,16.10
2017,05,25,16,10,11.30
2017,05,25,16,11,12.90
2017,05,25,16,12,19.30
2017,05,25,16,13,16.10
2017,05,25,16,14,20.90
2017,05,25,16,15,19.30
2017,05,25,16,16,22.50
2017,05,25,16,17,16.10
2017,05,25,16,18,12.90
2017,05,25,16,19,14.50
2017,05,25,16,20,14.50
2017,05,25,16,21,16.10
2017,05,25,16,22,11.30
2017,05,25,16,23,11.30
2017,05,25,16,24,11.30
2017,05,25,16,25,16.10
2017,05,25,16,26,19.30
2017,05,25,16,27,14.50
2017,05,25,16,28,14.50
2017,05,25,16,29,19.30
2017,05,25,16,30,17.70
2017,05,25,16,31,12.90
2017,05,25,16,32,16.10
2017,05,25,16,33,12.90
2017,05,25,16,34,9.60
2017,05,25,16,35,14.50
2017,05,25,16,36,12.90
2017,05,25,16,37,12.90
2017,05,25,16,38,6.40
2017,05,25,16,39,12.90
2017,05,25,16,40,12.90
2017,05,25,16,41,6.40
2017,05,25,16,42,8.10
2017,05,25,16,43,8.10
2017,05,25,16,44,12.90
2017,05,25,16,45,16.10
2017,05,25,16,46,19.30
2017,05,25,16,47,12.90
2017,05,25,16,48,16.10
2017,05,25,16,49,12.90
2017,05,25,16,50,9.60
2017,05,25,16,51,12.90
2017,05,25,16,52,17.70
2017,05,25,16,53,17.70
2017,05,25,16,54,14.50
2017,05,25,16,55,9.60
2017,05,25,16,56,14.50
2017,05,25,16,57,14.50
2017,05,25,16,58,17.70
2017,05,25,16,59,17.70
2017,05,25,17,00,16.10
2017,05,25,17,01,17.70
2017,05,25,17,02,19.30
2017,05,25,17,03,19.30
2017,05,25,17,04,17.70
2017,05,25,17,05,19.30
2017,05,25,17,06,14.50
2017,05,25,17,07,16.10
2017,05,25,17,08,16.10
2017,05,25,17,09,16.10
2017,05,25,17,10,11.30
2017,05,25,17,11,20.90
2017,05,25,17,12,17.70
2017,05,25,17,13,9.60
2017,05,25,17,14,9.60
2017,05,25,17,15,14.50
2017,05,25,17,16,9.60
2017,05,25,17,17,16.10
2017,05,25,17,18,8.10
2017,05,25,17,19,9.60
2017,05,25,17,20,8.10
2017,05,25,17,21,11.30
2017,05,25,17,22,11.30
2017,05,25,17,23,9.60
2017,05,25,17,24,6.40
2017,05,25,17,25,11.30
2017,05,25,17,26,9.60
2017,05,25,17,27,12.90
2017,05,25,17,28,11.30
2017,05,25,17,29,19.30
2017,05,25,17,30,11.30
2017,05,25,17,31,1.60
2017,05,25,17,32,12.90
2017,05,25,17,33,9.60
2017,05,25,17,34,9.60
2017,05,25,17,35,11.30
2017,05,25,17,36,6.40
2017,05,25,17,37,8.10
2017,05,25,17,38,11.30
2017,05,25,17,39,6.40
2017,05,25,17,40,9.60
2017,05,25,17,41,6.40
2017,05,25,17,42,3.20
2017,05,25,17,43,3.20
2017,05,25,17,44,12.90
2017,05,25,17,45,9.60
2017,05,25,17,46,6.40
2017,05,25,17,47,8.10
2017,05,25,17,48,6.40
2017,05,25,17,49,8.10
2017,05,25,17,50,4.80
2017,05,25,17,51,8.10
2017,05,25,17,52,8.10
2017,05,25,17,53,14.50
2017,05,25,17,54,14.50
2017,05,25,17,55,6.40
2017,05,25,17,56,14.50
2017,05,25,17,57,11.30
2017,05,25,17,58,12.90
2017,05,25,17,59,14.50
2017,05,25,18,00,12.90
2017,05,25,18,01,11.30
2017,05,25,18,02,12.90
2017,05,25,18,03,9.60
2017,05,25,18,04,12.90
2017,05,25,18,05,8.10
2017,05,25,18,06,14.50
2017,05,25,18,07,12.90
2017,05,25,18,08,9.60
2017,05,25,18,09,19.30
2017,05,25,18,10,14.50
2017,05,25,18,11,12.90
2017,05,25,18,12,11.30
2017,05,25,18,13,8.10
2017,05,25,18,14,6.40
2017,05,25,18,15,9.60
2017,05,25,18,16,9.60
2017,05,25,18,17,8.10
2017,05,25,18,18,8.10
2017,05,25,18,19,9.60
2017,05,25,18,20,9.60
2017,05,25,18,21,9.60
2017,05,25,18,22,9.60
2017,05,25,18,23,12.90
2017,05,25,18,24,8.10
2017,05,25,18,25,11.30
2017,05,25,18,26,12.90
2017,05,25,18,27,8.10
2017,05,25,18,28,11.30
2017,05,25,18,29,12.90
2017,05,25,18,30,14.50
2017,05,25,18,31,14.50
2017,05,25,18,32,12.90
2017,05,25,18,33,11.30
2017,05,25,18,34,14.50
2017,05,25,18,35,14.50
2017,05,25,18,36,16.10
2017,05,25,18,37,12.90
2017,05,25,18,38,12.90
2017,05,25,18,39,11.30
2017,05,25,18,40,11.30
2017,05,25,18,41,8.10
2017,05,25,18,42,16.10
2017,05,25,18,43,16.10
2017,05,25,18,44,11.30
2017,05,25,18,45,9.60
2017,05,25,18,46,11.30
2017,05,25,18,47,11.30
2017,05,25,18,48,11.30
2017,05,25,18,49,11.30
2017,05,25,18,50,11.30
2017,05,25,18,51,8.10
2017,05,25,18,52,11.30
2017,05,25,18,53,9.60
2017,05,25,18,54,6.40
2017,05,25,18,55,14.50
2017,05,25,18,56,11.30
2017,05,25,18,57,14.50
2017,05,25,18,58,14.50
2017,05,25,18,59,17.70
2017,05,25,19,00,12.90
2017,05,25,19,01,9.60
2017,05,25,19,02,9.60
2017,05,25,19,03,9.60
2017,05,25,19,04,9.60
2017,05,25,19,05,11.30
2017,05,25,19,06,12.90
2017,05,25,19,07,12.90
2017,05,25,19,08,12.90
2017,05,25,19,09,14.50
2017,05,25,19,10,9.60
2017,05,25,19,11,14.50
2017,05,25,19,12,12.90
2017,05,25,19,13,16.10
2017,05,25,19,14,9.60
2017,05,25,19,15,14.50
2017,05,25,19,16,11.30
2017,05,25,19,17,8.10
2017,05,25,19,18,11.30
2017,05,25,19,19,8.10
2017,05,25,19,20,11.30
2017,05,25,19,21,11.30
2017,05,25,19,22,12.90
2017,05,25,19,23,11.30
2017,05,25,19,24,16.10
2017,05,25,19,25,12.90
2017,05,25,19,26,16.10
2017,05,25,19,27,14.50
2017,05,25,19,28,14.50
2017,05,25,19,29,11.30
2017,05,25,19,30,12.90
2017,05,25,19,31,16.10
2017,05,25,19,32,9.60
2017,05,25,19,33,11.30
2017,05,25,19,34,8.10
2017,05,25,19,35,9.60
2017,05,25,19,36,8.10
2017,05,25,19,37,11.30
2017,05,25,19,38,9.60
2017,05,25,19,39,11.30
2017,05,25,19,40,12.90
2017,05,25,19,41,12.90
2017,05,25,19,42,12.90
2017,05,25,19,43,6.40
2017,05,25,19,44,3.20
2017,05,25,19,45,3.20
2017,05,25,19,46,3.20
2017,05,25,19,47,8.10
2017,05,25,19,48,14.50
2017,05,25,19,49,11.30
2017,05,25,19,50,12.90
2017,05,25,19,51,11.30
2017,05,25,19,52,14.50
2017,05,25,19,53,12.90
2017,05,25,19,54,11.30
2017,05,25,19,55,12.90
2017,05,25,19,56,9.60
2017,05,25,19,57,9.60
2017,05,25,19,58,12.90
2017,05,25,19,59,9.60
2017,05,25,20,00,8.10
2017,05,25,20,01,8.10
2017,05,25,20,02,8.10
2017,05,25,20,03,9.60
2017,05,25,20,04,6.40
2017,05,25,20,05,6.40
2017,05,25,20,06,9.60
2017,05,25,20,07,8.10
2017,05,25,20,08,6.40
2017,05,25,20,09,6.40
2017,05,25,20,10,6.40
2017,05,25,20,11,6.40
2017,05,25,20,12,3.20
2017,05,25,20,13,3.20
2017,05,25,20,14,4.80
2017,05,25,20,15,3.20
2017,05,25,20,16,8.10
2017,05,25,20,17,8.10
2017,05,25,20,18,4.80
2017,05,25,20,19,3.20
2017,05,25,20,20,3.20
2017,05,25,20,21,3.20
2017,05,25,20,22,4.80
2017,05,25,20,23,3.20
2017,05,25,20,24,6.40
2017,05,25,20,25,4.80
2017,05,25,20,26,6.40
2017,05,25,20,27,6.40
2017,05,25,20,28,9.60
2017,05,25,20,29,8.10
2017,05,25,20,30,8.10
2017,05,25,20,31,8.10
2017,05,25,20,32,9.60
2017,05,25,20,33,8.10
2017,05,25,20,34,8.10
2017,05,25,20,35,6.40
2017,05,25,20,36,4.80
2017,05,25,20,37,8.10
2017,05,25,20,38,8.10
2017,05,25,20,39,8.10
2017,05,25,20,40,8.10
2017,05,25,20,41,8.10
2017,05,25,20,42,9.60
2017,05,25,20,43,8.10
2017,05,25,20,44,9.60
2017,05,25,20,45,8.10
2017,05,25,20,46,6.40
2017,05,25,20,47,8.10
2017,05,25,20,48,6.40
2017,05,25,20,49,8.10
2017,05,25,20,50,8.10
2017,05,25,20,51,6.40
2017,05,25,20,52,9.60
2017,05,25,20,53,9.60
2017,05,25,20,54,8.10
2017,05,25,20,55,8.10
2017,05,25,20,56,6.40
2017,05,25,20,57,8.10
2017,05,25,20,58,6.40
2017,05,25,20,59,6.40
2017,05,25,21,00,9.60
2017,05,25,21,01,8.10
2017,05,25,21,02,4.80
2017,05,25,21,03,4.80
2017,05,25,21,04,6.40
2017,05,25,21,05,3.20
2017,05,25,21,06,4.80
2017,05,25,21,07,3.20
2017,05,25,21,08,3.20
2017,05,25,21,09,3.20
2017,05,25,21,10,4.80
2017,05,25,21,11,6.40
2017,05,25,21,12,6.40
2017,05,25,21,13,4.80
2017,05,25,21,14,4.80
2017,05,25,21,15,6.40
2017,05,25,21,16,6.40
2017,05,25,21,17,3.20
2017,05,25,21,18,1.60
2017,05,25,21,21,3.20
2017,05,25,21,22,3.20
2017,05,25,21,33,3.20
2017,05,25,21,34,3.20
2017,05,25,21,35,3.20
2017,05,25,21,36,3.20
2017,05,25,21,37,4.80
2017,05,25,21,39,1.60
2017,05,25,21,40,4.80
2017,05,25,21,41,3.20
2017,05,25,21,42,3.20
2017,05,25,21,43,4.80
2017,05,25,21,44,4.80
2017,05,25,21,45,4.80
2017,05,25,21,46,6.40
2017,05,25,21,47,4.80
2017,05,25,21,48,3.20
2017,05,25,21,49,3.20
2017,05,25,21,50,3.20
2017,05,25,21,51,3.20
2017,05,25,21,52,4.80
2017,05,25,21,53,1.60
2017,05,25,21,54,3.20
2017,05,25,21,55,3.20
2017,05,25,21,56,4.80
2017,05,25,21,57,4.80
2017,05,25,21,58,8.10
2017,05,25,21,59,4.80
2017,05,25,22,00,6.40
2017,05,25,22,01,4.80
2017,05,25,22,02,6.40
2017,05,25,22,03,6.40
2017,05,25,22,04,6.40
2017,05,25,22,05,4.80
2017,05,25,22,06,6.40
2017,05,25,22,07,4.80
2017,05,25,22,08,4.80
2017,05,25,22,09,3.20
2017,05,25,22,10,4.80
2017,05,25,22,11,4.80
2017,05,25,22,12,3.20
2017,05,25,22,15,1.60
2017,05,25,22,33,1.60
2017,05,25,22,34,3.20
2017,05,25,22,35,4.80
2017,05,25,22,36,4.80
2017,05,25,22,37,4.80
2017,05,25,22,38,4.80
2017,05,25,22,39,3.20
2017,05,25,22,40,3.20
2017,05,25,22,41,1.60
2017,05,25,22,45,4.80
2017,05,25,22,46,3.20
2017,05,25,22,48,1.60
2017,05,25,22,53,3.20
2017,05,25,22,54,1.60
2017,05,25,22,55,1.60
2017,05,25,23,03,1.60
2017,05,25,23,04,3.20
2017,05,25,23,05,1.60
2017,05,25,23,06,1.60
2017,05,25,23,16,1.60
2017,05,25,23,17,3.20
2017,05,25,23,18,3.20
2017,05,25,23,19,1.60
2017,05,25,23,34,3.20
2017,05,25,23,35,4.80
2017,05,25,23,36,3.20
2017,05,25,23,37,1.60
2017,05,25,23,56,3.20
2017,05,25,23,57,3.20
2017,05,25,23,58,3.20
2017,05,25,23,59,3.20
